FENGYUN 1C DEB, 38803

Orbit data source: Space-Track

FENGYUN 1C DEB, 38803 is space debris in SSO originally from a launch on Mon, 10 May 1999 UTC launched from the Taiyaun Space Center, China (TSC). Fengyun 1C debris stems from the Chinese weather satellite Fengyun-1C, which was intentionally destroyed by a Chinese anti-satellite missile in 2007. This event dramatically increased the amount of space debris, with thousands of trackable fragments posing hazards to satellites and human spaceflight. The Fengyun 1C debris cloud has become a focal point in discussions about space sustainability and the need for international regulations to prevent the creation of new debris.

Loading next visibility...
Identifier
38803, 1999-025EUT
Orbit
SSO
Country
Flag of CNCN / PRC
Related business
Manufacturer
Unknown
Mission
Spacecraft
Bus & Motor
Unknown
Mass
Unknown
Launch date (UTC)
1999-05-10 (27 years ago)
Launch vehicle
Unknown
Launch site
Taiyaun Space Center, China (TSC)
Object type
Payload
Rocket body
Debris
Shape & HBR
Unknown shape, 0.1 m
Radar Cross Section
Small (<0.1 m²)

Expand to show TLE details & history
Last TLE update: 3 days ago

TLE from 3 days ago
0 FENGYUN 1C DEB
1 38803U 99025EUT 26119.48867759  .00003892  00000-0  16486-2 0  9999
2 38803  99.1330 133.7980 0061925   3.8951 356.2696 14.25024346621736
Epoch: 2026-04-29T11:43Z
TLE epoch observation values (Epoch: 2026-04-29T11:43:41.743Z)
Latitude
-0.0001°
Longitude
100.42517°
Altitude
766.902 km
Speed
7.494 km/s
True Right ascension
08h 55m 11s
True Declination
0° 00' 00"
Sunlit
Object was in daylight at epoch
Visualization orbit readout
Latitude
Unknown
Longitude
Unknown
Altitude
Unknown
Speed
Unknown
Apparent Right ascension
Unknown
Apparent Declination
Unknown
Sunlit
N/A
Visualization observer readout
Local Sidereal Time
11:19:31
Azimuth
Unknown
Elevation
Unknown
Doppler factor
Unknown
Orbital elements
Apogee altitude
850.069 km
Perigee altitude
761.098 km
Semi-major axis
7,183.72 km
Eccentricity
0.00619
Inclination
99.133°
RAAN
133.798°
Arg. of periapsis
3.8951°
True anomaly
356.22307°
Mean anomaly
356.2696°
Eccentric anomaly
356.24637°
Mean motion
3.56467 °/min
Orbital period
100.99 mins
BSTAR
0.0016486
Loading maneuver chart data...
Computing Atmospheric mass density...
Loading historical data...
Loading historical data...
Loading historical data...
Loading historical data...
Loading historical data...
Loading historical data...
Loading historical data...

Documentation

Showing up to 5 results
|